Location: Grasslands National Park East Block
(49.0708°N, 106.5295°W)
Time: 18:01:19
(UTC-06:00)

Vanguard 1 - Pass Details

Date: 28 September 2019
Orbit: 653 x 3830 km, 34.3° (Epoch: 14 October)

Event Time Altitude Azimuth Distance (km) Brightness Sun altitude
Rises 08:09:29 0° 280° (W) 7,829 14.0 10.2°
Reaches altitude 10° 08:17:32 10° 266° (W) 6,443 13.7 11.5°
Maximum altitude 08:28:43 19° 231° (SW) 4,914 13.4 13.2°
Drops below altitude 10° 08:37:18 10° 194° (SSW) 4,755 13.7 14.5°
Sets 08:41:55 0° 176° (S) 5,218 14.1 15.2°
